Dirección General De Aeronáutica Civil

Dirección Meteorológica de Chile - Servicios Climáticos

Informe General de Control de Calidad de la Estación

Listado de niveles de control de calidad para algunos parámetros
Estación La Unión Norte (400050)
Fecha de Revisión de los datos :

Elementos

Registros Niveles de Control Total
Nivel 0 Nivel 1 Nivel 2 Nivel 3 Errores Porcentaje
01 Temperatura del Aire Seco 113.289 0 . 129 0.11 % 0 . 0 . 129 0.11 %
02 Temperatura de Rocío 112.956 0 . 0 . 0 . 0 . 0 0.00 %
03 Humedad Relativa del Aire 113.316 0 . 0 . 0 . 0 . 0 0.00 %
04 Temperatura Máxima PM 1.068 0 . 0 . 0 . 0 . 0 0.00 %
05 Temperatura Mínima AM 1.059 0 . 0 . 0 . 0 . 0 0.00 %
06 Agua Caida, Acumulada 6 Horas 19.956 0 . 0 . 0 . 0 . 0 0.00 %
07 Presión Atm. a Nivel de Estación (QFE) 74.338 0 . 0 . 0 . 0 . 0 0.00 %
08 Presión Atm. a Nivel Medio del Mar (QFF) 62.334 0 . 0 . 0 . 0 . 0 0.00 %
09 Presión Atm. Estándar OACI (QNH) 24.854 0 . 0 . 0 . 0 . 0 0.00 %

Totales

523.170 . 0.0000 % . 0.0247 % . 0.0000 % . 0.0000 % 129 0.0247 %

Detalle de Errores Encontrados

Nivel Fecha del Dato Descripción Información Error Fecha Ingreso
1 2018-05-03 12:00:00 Ts debe ser mayor o igual a Td Ts=5.6 - Td=5.7 2023-11-20 20:33:00
1 2018-05-03 13:00:00 Ts debe ser mayor o igual a Td Ts=7.3 - Td=7.4 2023-11-20 20:33:00
1 2018-05-07 15:00:00 Ts debe ser mayor o igual a Td Ts=13.8 - Td=13.9 2023-11-20 20:33:00
1 2018-05-15 16:00:00 Ts debe ser mayor o igual a Td Ts=8.7 - Td=8.8 2023-11-20 20:33:00
1 2018-05-18 09:00:00 Ts debe ser mayor o igual a Td Ts=5.6 - Td=5.7 2023-11-20 20:33:00
1 2018-05-21 16:00:00 Ts debe ser mayor o igual a Td Ts=7.4 - Td=7.5 2023-11-20 20:33:00
1 2018-05-24 12:00:00 Ts debe ser mayor o igual a Td Ts=4.8 - Td=4.9 2023-11-20 20:33:00
1 2018-06-09 17:00:00 Ts debe ser mayor o igual a Td Ts=5.7 - Td=5.8 2023-11-20 20:34:00
1 2018-06-11 18:00:00 Ts debe ser mayor o igual a Td Ts=7.2 - Td=7.3 2023-11-20 20:34:00
1 2018-07-13 14:00:00 Ts debe ser mayor o igual a Td Ts=11.4 - Td=11.5 2023-11-20 20:34:00
1 2018-07-16 05:00:00 Ts debe ser mayor o igual a Td Ts=4.8 - Td=4.9 2023-11-20 20:34:00
1 2018-07-18 10:00:00 Ts debe ser mayor o igual a Td Ts=4.8 - Td=4.9 2023-11-20 20:34:00
1 2018-08-10 04:00:00 Ts debe ser mayor o igual a Td Ts=8.3 - Td=8.4 2023-11-20 20:34:00
1 2018-08-11 05:00:00 Ts debe ser mayor o igual a Td Ts=5.6 - Td=5.7 2023-11-20 20:34:00
1 2018-08-17 12:00:00 Ts debe ser mayor o igual a Td Ts=8.5 - Td=8.6 2023-11-20 20:34:00
1 2019-04-15 14:00:00 Ts debe ser mayor o igual a Td Ts=4.8 - Td=4.9 2023-11-20 20:38:00
1 2019-05-03 07:00:00 Ts debe ser mayor o igual a Td Ts=10.5 - Td=10.6 2023-11-20 20:38:00
1 2019-05-03 13:00:00 Ts debe ser mayor o igual a Td Ts=10.7 - Td=10.8 2023-11-20 20:38:00
1 2019-05-05 09:00:00 Ts debe ser mayor o igual a Td Ts=8.8 - Td=8.9 2023-11-20 20:38:00
1 2019-05-05 11:00:00 Ts debe ser mayor o igual a Td Ts=8.1 - Td=8.2 2023-11-20 20:38:00
1 2019-05-19 13:00:00 Ts debe ser mayor o igual a Td Ts=8.8 - Td=8.9 2023-11-20 20:38:00
1 2019-05-27 11:00:00 Ts debe ser mayor o igual a Td Ts=5.6 - Td=5.7 2023-11-20 20:38:00
1 2019-05-29 07:00:00 Ts debe ser mayor o igual a Td Ts=4.8 - Td=4.9 2023-11-20 20:38:00
1 2019-05-29 19:00:00 Ts debe ser mayor o igual a Td Ts=8.8 - Td=8.9 2023-11-20 20:38:00
1 2019-06-14 05:00:00 Ts debe ser mayor o igual a Td Ts=5.7 - Td=5.8 2023-11-20 20:39:00
1 2019-06-23 05:00:00 Ts debe ser mayor o igual a Td Ts=10.8 - Td=10.9 2023-11-20 20:39:00
1 2019-06-23 06:00:00 Ts debe ser mayor o igual a Td Ts=10.6 - Td=10.7 2023-11-20 20:39:00
1 2019-06-23 13:00:00 Ts debe ser mayor o igual a Td Ts=8.8 - Td=8.9 2023-11-20 20:39:00
1 2019-07-24 17:00:00 Ts debe ser mayor o igual a Td Ts=7.6 - Td=7.7 2023-11-20 20:39:00
1 2019-08-03 23:00:00 Ts debe ser mayor o igual a Td Ts=4.8 - Td=4.9 2023-11-20 20:39:00
1 2019-08-12 11:00:00 Ts debe ser mayor o igual a Td Ts=5.7 - Td=5.8 2023-11-20 20:39:00
1 2019-08-13 15:00:00 Ts debe ser mayor o igual a Td Ts=8.2 - Td=8.3 2023-11-20 20:39:00
1 2019-08-22 16:00:00 Ts debe ser mayor o igual a Td Ts=7.0 - Td=7.1 2023-11-20 20:39:00
1 2019-08-22 17:00:00 Ts debe ser mayor o igual a Td Ts=8.1 - Td=8.2 2023-11-20 20:39:00
1 2019-10-01 13:00:00 Ts debe ser mayor o igual a Td Ts=3.5 - Td=4.0 2023-11-08 10:30:00
1 2019-10-01 14:00:00 Ts debe ser mayor o igual a Td Ts=4.2 - Td=7.4 2023-11-08 10:30:00
1 2019-10-02 11:00:00 Ts debe ser mayor o igual a Td Ts=-1.3 - Td=-1.2 2023-11-08 10:30:00
1 2019-10-02 12:00:00 Ts debe ser mayor o igual a Td Ts=-0.8 - Td=3.5 2023-11-08 10:30:00
1 2019-10-02 13:00:00 Ts debe ser mayor o igual a Td Ts=3.9 - Td=4.6 2023-11-08 10:30:00
1 2019-10-03 12:00:00 Ts debe ser mayor o igual a Td Ts=0.4 - Td=3.4 2023-11-08 10:30:00
1 2019-10-03 13:00:00 Ts debe ser mayor o igual a Td Ts=4.4 - Td=6.4 2023-11-08 10:30:00
1 2019-10-04 12:00:00 Ts debe ser mayor o igual a Td Ts=6.6 - Td=7.3 2023-11-08 10:30:00
1 2019-10-05 11:00:00 Ts debe ser mayor o igual a Td Ts=3.1 - Td=3.3 2023-11-08 10:30:00
1 2019-10-05 12:00:00 Ts debe ser mayor o igual a Td Ts=3.7 - Td=6.0 2023-11-08 10:30:00
1 2019-10-05 13:00:00 Ts debe ser mayor o igual a Td Ts=6.6 - Td=7.6 2023-11-08 10:30:00
1 2019-10-07 12:00:00 Ts debe ser mayor o igual a Td Ts=7.6 - Td=11.4 2023-11-08 10:30:00
1 2019-10-08 06:00:00 Ts debe ser mayor o igual a Td Ts=3.3 - Td=4.0 2023-11-08 10:30:00
1 2019-10-08 12:00:00 Ts debe ser mayor o igual a Td Ts=6.5 - Td=7.2 2023-11-08 10:30:00
1 2019-10-09 12:00:00 Ts debe ser mayor o igual a Td Ts=5.0 - Td=8.0 2023-11-08 10:30:00
1 2019-10-09 13:00:00 Ts debe ser mayor o igual a Td Ts=8.9 - Td=9.2 2023-11-08 10:30:00
1 2019-10-10 11:00:00 Ts debe ser mayor o igual a Td Ts=6.6 - Td=7.2 2023-11-08 10:30:00
1 2019-10-10 12:00:00 Ts debe ser mayor o igual a Td Ts=7.5 - Td=8.4 2023-11-08 10:30:00
1 2019-10-10 13:00:00 Ts debe ser mayor o igual a Td Ts=8.6 - Td=12.0 2023-11-08 10:30:00
1 2019-10-16 11:00:00 Ts debe ser mayor o igual a Td Ts=6.4 - Td=7.5 2023-11-08 10:30:00
1 2019-10-16 12:00:00 Ts debe ser mayor o igual a Td Ts=8.1 - Td=10.1 2023-11-08 10:30:00
1 2019-10-18 08:00:00 Ts debe ser mayor o igual a Td Ts=4.8 - Td=5.4 2023-11-08 10:31:00
1 2019-10-18 09:00:00 Ts debe ser mayor o igual a Td Ts=6.0 - Td=6.6 2023-11-08 10:31:00
1 2019-10-18 11:00:00 Ts debe ser mayor o igual a Td Ts=7.7 - Td=7.8 2023-11-08 10:31:00
1 2019-10-19 15:00:00 Ts debe ser mayor o igual a Td Ts=10.8 - Td=10.9 2023-11-08 10:31:00
1 2019-10-21 11:00:00 Ts debe ser mayor o igual a Td Ts=5.4 - Td=7.0 2023-11-08 10:31:00
1 2019-10-21 12:00:00 Ts debe ser mayor o igual a Td Ts=7.4 - Td=9.3 2023-11-08 10:31:00
1 2019-10-22 10:00:00 Ts debe ser mayor o igual a Td Ts=2.6 - Td=3.3 2023-11-08 10:31:00
1 2019-10-22 11:00:00 Ts debe ser mayor o igual a Td Ts=4.0 - Td=5.5 2023-11-08 10:31:00
1 2019-10-24 11:00:00 Ts debe ser mayor o igual a Td Ts=6.6 - Td=7.0 2023-11-08 10:31:00
1 2019-10-24 12:00:00 Ts debe ser mayor o igual a Td Ts=7.9 - Td=8.1 2023-11-08 10:31:00
1 2019-10-27 11:00:00 Ts debe ser mayor o igual a Td Ts=6.4 - Td=7.5 2023-11-08 10:32:00
1 2019-10-27 12:00:00 Ts debe ser mayor o igual a Td Ts=8.1 - Td=10.1 2023-11-08 10:32:00
1 2019-10-28 12:00:00 Ts debe ser mayor o igual a Td Ts=9.7 - Td=9.9 2023-11-08 10:32:00
1 2019-10-28 20:00:00 Ts debe ser mayor o igual a Td Ts=10.2 - Td=10.6 2023-11-08 10:32:00
1 2019-10-29 12:00:00 Ts debe ser mayor o igual a Td Ts=9.7 - Td=10.1 2023-11-08 10:32:00
1 2019-10-30 05:00:00 Ts debe ser mayor o igual a Td Ts=5.9 - Td=6.4 2023-11-08 10:32:00
1 2019-10-30 11:00:00 Ts debe ser mayor o igual a Td Ts=5.3 - Td=6.5 2023-11-08 10:32:00
1 2019-10-30 12:00:00 Ts debe ser mayor o igual a Td Ts=7.1 - Td=8.7 2023-11-08 10:32:00
1 2019-10-31 07:00:00 Ts debe ser mayor o igual a Td Ts=4.8 - Td=4.9 2023-11-08 10:32:00
1 2019-10-31 12:00:00 Ts debe ser mayor o igual a Td Ts=7.8 - Td=8.4 2023-11-08 10:32:00
1 2019-11-01 15:00:00 Ts debe ser mayor o igual a Td Ts=11.6 - Td=12.3 2023-11-08 10:32:00
1 2019-11-02 11:00:00 Ts debe ser mayor o igual a Td Ts=2.1 - Td=3.2 2023-11-08 10:32:00
1 2019-11-02 12:00:00 Ts debe ser mayor o igual a Td Ts=3.4 - Td=8.3 2023-11-08 10:32:00
1 2019-11-02 13:00:00 Ts debe ser mayor o igual a Td Ts=8.7 - Td=10.4 2023-11-08 10:32:00
1 2019-11-03 11:00:00 Ts debe ser mayor o igual a Td Ts=2.9 - Td=6.0 2023-11-08 10:32:00
1 2019-11-03 12:00:00 Ts debe ser mayor o igual a Td Ts=6.2 - Td=10.0 2023-11-08 10:32:00
1 2019-11-04 11:00:00 Ts debe ser mayor o igual a Td Ts=7.5 - Td=8.2 2023-11-08 10:32:00
1 2019-11-05 11:00:00 Ts debe ser mayor o igual a Td Ts=2.4 - Td=4.7 2023-11-08 10:32:00
1 2019-11-05 12:00:00 Ts debe ser mayor o igual a Td Ts=5.2 - Td=7.8 2023-11-08 10:32:00
1 2019-11-06 08:00:00 Ts debe ser mayor o igual a Td Ts=6.0 - Td=6.3 2023-11-08 10:32:00
1 2019-11-06 12:00:00 Ts debe ser mayor o igual a Td Ts=9.0 - Td=9.5 2023-11-08 10:32:00
1 2019-11-09 10:00:00 Ts debe ser mayor o igual a Td Ts=6.5 - Td=6.6 2023-11-08 10:32:00
1 2019-11-10 11:00:00 Ts debe ser mayor o igual a Td Ts=8.9 - Td=10.5 2023-11-08 10:32:00
1 2019-11-10 12:00:00 Ts debe ser mayor o igual a Td Ts=12.3 - Td=12.4 2023-11-08 10:32:00
1 2019-11-12 13:00:00 Ts debe ser mayor o igual a Td Ts=10.7 - Td=11.5 2023-11-08 10:32:00
1 2019-11-13 08:00:00 Ts debe ser mayor o igual a Td Ts=8.4 - Td=8.5 2023-11-08 10:32:00
1 2019-11-14 10:00:00 Ts debe ser mayor o igual a Td Ts=9.4 - Td=10.4 2023-11-08 10:32:00
1 2019-11-14 11:00:00 Ts debe ser mayor o igual a Td Ts=11.1 - Td=11.4 2023-11-08 10:32:00
1 2019-11-16 06:00:00 Ts debe ser mayor o igual a Td Ts=8.4 - Td=8.5 2023-11-08 10:32:00
1 2019-11-16 11:00:00 Ts debe ser mayor o igual a Td Ts=7.8 - Td=10.7 2023-11-08 10:32:00
1 2019-11-16 12:00:00 Ts debe ser mayor o igual a Td Ts=11.4 - Td=12.5 2023-11-08 10:32:00
1 2019-11-18 08:00:00 Ts debe ser mayor o igual a Td Ts=7.0 - Td=7.1 2023-11-08 10:32:00
1 2019-11-18 10:00:00 Ts debe ser mayor o igual a Td Ts=7.0 - Td=7.5 2023-11-08 10:32:00
1 2019-11-18 10:00:00 HR (Humedad Relativa) es igual a 100% y Ts <> Td 7.0 - 7.5 2023-11-08 10:32:00
1 2019-11-18 11:00:00 Ts debe ser mayor o igual a Td Ts=7.5 - Td=8.3 2023-11-08 10:32:00
1 2019-11-18 11:00:00 HR (Humedad Relativa) es igual a 100% y Ts <> Td 7.5 - 8.3 2023-11-08 10:32:00
1 2019-11-18 12:00:00 Ts debe ser mayor o igual a Td Ts=8.3 - Td=12.8 2023-11-08 10:32:00
1 2019-11-18 12:00:00 HR (Humedad Relativa) es igual a 100% y Ts <> Td 8.3 - 12.8 2023-11-08 10:32:00
1 2019-11-18 13:00:00 Ts debe ser mayor o igual a Td Ts=12.8 - Td=13.6 2023-11-08 10:32:00
1 2019-11-18 13:00:00 HR (Humedad Relativa) es igual a 100% y Ts <> Td 12.8 - 13.6 2023-11-08 10:32:00
1 2019-11-19 11:00:00 Ts debe ser mayor o igual a Td Ts=8.4 - Td=9.7 2023-11-08 10:32:00
1 2019-11-19 12:00:00 Ts debe ser mayor o igual a Td Ts=9.9 - Td=12.2 2023-11-08 10:32:00
1 2019-11-19 13:00:00 Ts debe ser mayor o igual a Td Ts=12.8 - Td=14.0 2023-11-08 10:32:00
1 2019-11-20 11:00:00 Ts debe ser mayor o igual a Td Ts=6.5 - Td=9.8 2023-11-08 10:32:00
1 2019-11-21 11:00:00 Ts debe ser mayor o igual a Td Ts=5.4 - Td=7.8 2023-11-08 10:32:00
1 2019-11-21 12:00:00 Ts debe ser mayor o igual a Td Ts=9.0 - Td=9.2 2023-11-08 10:32:00
1 2019-11-30 11:00:00 Ts debe ser mayor o igual a Td Ts=10.6 - Td=10.7 2023-11-08 10:32:00
1 2019-12-01 11:00:00 Ts debe ser mayor o igual a Td Ts=5.8 - Td=8.3 2023-11-08 10:32:00
1 2019-12-01 12:00:00 Ts debe ser mayor o igual a Td Ts=8.8 - Td=11.1 2023-11-08 10:32:00
1 2019-12-02 11:00:00 Ts debe ser mayor o igual a Td Ts=9.9 - Td=10.5 2023-11-08 10:33:00
1 2019-12-09 10:00:00 Ts debe ser mayor o igual a Td Ts=8.8 - Td=9.5 2023-11-08 10:33:00
1 2019-12-09 11:00:00 Ts debe ser mayor o igual a Td Ts=9.9 - Td=11.4 2023-11-08 10:33:00
1 2019-12-09 12:00:00 Ts debe ser mayor o igual a Td Ts=12.1 - Td=12.3 2023-11-08 10:33:00
1 2019-12-10 11:00:00 Ts debe ser mayor o igual a Td Ts=12.2 - Td=12.3 2023-11-08 10:33:00
1 2019-12-12 11:00:00 Ts debe ser mayor o igual a Td Ts=5.2 - Td=7.0 2023-11-08 10:33:00
1 2019-12-12 12:00:00 Ts debe ser mayor o igual a Td Ts=7.8 - Td=9.8 2023-11-08 10:33:00
1 2019-12-14 11:00:00 Ts debe ser mayor o igual a Td Ts=7.0 - Td=8.8 2023-11-08 10:33:00
1 2019-12-14 12:00:00 Ts debe ser mayor o igual a Td Ts=9.7 - Td=10.7 2023-11-08 10:33:00
1 2019-12-15 10:00:00 Ts debe ser mayor o igual a Td Ts=6.4 - Td=7.0 2023-11-08 10:33:00
1 2019-12-15 11:00:00 Ts debe ser mayor o igual a Td Ts=7.9 - Td=8.3 2023-11-08 10:33:00
1 2019-12-16 11:00:00 Ts debe ser mayor o igual a Td Ts=6.0 - Td=8.9 2023-11-08 10:33:00
1 2019-12-16 12:00:00 Ts debe ser mayor o igual a Td Ts=9.6 - Td=10.4 2023-11-08 10:33:00
1 2019-12-17 11:00:00 Ts debe ser mayor o igual a Td Ts=6.9 - Td=9.3 2023-11-08 10:33:00
1 2019-12-17 12:00:00 Ts debe ser mayor o igual a Td Ts=9.9 - Td=11.6 2023-11-08 10:33:00
Errores del Nivel 129
Informe generado el 13-07-2024 04:19
Requerimiento: RE6001